Regional Weather Roundup
Issued by NWS Wilmington, NC

Home | Current Version | Previous Version | Text Only | Print | Product List | Glossary On
Versions: 1 2 3 4 5 6 7 8 9 10 11 12 13 14 15 16 17 18 19 20 21 22 23 24 25 26 27
000
ASUS42 KILM 271813
RWRILM
RWRILM
REGIONAL HOURLY WEATHER ROUNDUP
NATIONAL WEATHER SERVICE WILMINGTON NC
200 PM EDT TUE SEP 27 2016

NOTE: "FAIR" INDICATES FEW OR NO CLOUDS BELOW 12,000 FEET WITH NO
SIGNIFICANT WEATHER AND/OR OBSTRUCTIONS TO VISIBILITY.

...............WFO WILMINGTON COUNTY WARNING AREA...............

......COASTAL NC AND SC COUNTIES......

CITY           SKY/WX    TMP DP  RH WIND       PRES   REMARKS
WILMINGTON     CLOUDY    78  68  71 E7        29.91F
N MYRTLE BEACH CLOUDY    83  71  67 NW7       29.91F
MYRTLE BEACH   MOSUNNY   84  64  51 CALM      29.93F

......INLAND NC AND SC COUNTIES.......

CITY           SKY/WX    TMP DP  RH WIND       PRES   REMARKS
LUMBERTON      MOSUNNY   86  70  58 S6        29.89F HX  90
ELIZABETHTOWN  SUNNY     83  67  57 CALM      29.91F
WHITEVILLE     NOT AVBL
FLORENCE       SUNNY     83  68  60 CALM      29.91F
DARLINGTON     SUNNY     84  70  62 CALM      29.91F
KINGSTREE      FAIR      82  66  57 SW3       29.91F
HARTSVILLE     FAIR      84  68  58 W3        29.91F
BENNETTSVILLE  FAIR      86  70  58 CALM      29.90F HX  90
CONWAY         FAIR      84  68  58 CALM      29.91F
GEORGETOWN     PTSUNNY   84  70  61 NE3       29.92F
MARION         FAIR      82  68  61 CALM      29.91F

....................REST OF NORTH CAROLINA......................

.........EASTERN NC.........

CITY           SKY/WX    TMP DP  RH WIND       PRES   REMARKS
CAPE HATTERAS  CLOUDY    81  72  74 SE13G18   29.92F
JACKSONVILLE   CLOUDY    82  70  66 E7        29.92F
MOREHEAD CITY  CLOUDY    81  68  64 SE8       29.91F
KENANSVILLE    MOSUNNY   82  66  57 NE3       29.91F
NEW BERN       CLOUDY    79  71  76 SW5       29.93F
ELIZABETH CITY CLOUDY    79  67  66 S5        29.93F

.........CENTRAL NC.........

CITY           SKY/WX    TMP DP  RH WIND       PRES   REMARKS
RALEIGH DURHAM CLOUDY    78  68  71 W3        29.93F
ROCKY MOUNT    LGT RAIN  75  72  90 N7        29.91F FOG
ROANOKE RAPIDS NOT AVBL
FAYETTEVILLE   PTSUNNY   84  68  58 N3        29.90F
HOFFMAN        PTSUNNY   82  68  61 S3        29.90F

.........WESTERN NC.........

CITY           SKY/WX    TMP DP  RH WIND       PRES   REMARKS
CHARLOTTE      CLOUDY    82  68  62 SW6       29.93F
GREENSBORO     PTSUNNY   75  68  78 W6        29.94F
HICKORY        NOT AVBL
BOONE          NOT AVBL
ASHEVILLE      NOT AVBL

.....................REST OF SOUTH CAROLINA.....................

.........EASTERN SC.........

CITY           SKY/WX    TMP DP  RH WIND       PRES   REMARKS
CHARLESTON     MOSUNNY   87  69  54 E7        29.90F HX  91
BEAUFORT MCAS  MOSUNNY   87  69  54 N5        29.91F HX  91
HILTON HEAD    MOSUNNY   88  72  58 E6        29.92F HX  94

.........CENTRAL SC.........

CITY           SKY/WX    TMP DP  RH WIND       PRES   REMARKS
COLUMBIA       MOSUNNY   87  67  51 CALM      29.91F HX  90
ORANGEBURG     PTSUNNY   84  66  54 NW6       29.92F
SUMTER SHAW    PTSUNNY   85  67  55 VRB1      29.89F

.........WESTERN SC.........

CITY           SKY/WX    TMP DP  RH WIND       PRES   REMARKS
GREENVILLE     NOT AVBL
ROCK HILL      MOSUNNY   83  67  58 S6        29.93F
ANDERSON       SUNNY     85  67  54 VRB6      29.92F
CLEMSON        NOT AVBL
GREENWOOD      MOSUNNY   83  66  56 NW5       29.94F


...................COASTAL AND OFFSHORE REPORTS..................

................LOCAL PIERS AND NC RESERVE................


STATION/POSITION TIME  SKY/WX   TEMP    WIND        PRES    VSBY
                                AIR SEA DIR/SP/G
                 (UTC)          (F)     (DEG/KT/KT) (MB)    (MI)
JOHNY MRCER PIER 1748            78 83  340/  5/  7 1011.7F
NC RESRV MASNBRO 1645            82      90/  4     1012.0
OCEAN CREST PIER NOT AVBL
SPRINGMAID  PIER 1748            81 81  100/  4/  6 1012.6F


................COASTAL AND OFFSHORE BUOYS................


STATION/POSITION TIME  SKY/WX   TEMP    WIND        PRES    VSBY
                                AIR SEA DIR/SP/G
                 (UTC)          (F)     (DEG/KT/KT) (MB)    (MI)
DIMNDSHOAL 41025 1750            76 84  130/ 17/ 21 1012.9F
WVE H/P(F/S)=  4/ 6 SWL H/P/D(F/S/D)=  2/ 70/12

CAPE LOOKOUT     1800            78      70/  9/ 10 1012.7F
ONSLOW BAY 41036 NOT AVBL
ONSLOW BAY 41064 1708            80 83  110/  8/ 12 1013.0F
ONSLOW BAY 41159 1725               83                N/A
WVE H/P(F/S)=  4/ 6

5SE WRITBC 41038 1708            80 81   90/  4/  6 1014.4F
MASNBO INL 41110 1729               81                N/A
WVE H/P(F/S)=  3/ 6

WILM HARBR 41108 1756               81                N/A
WVE H/P(F/S)=  3/ 6

27SE WRITB 41037 1708            80 81   90/  6/ 10 1013.2F
FRYING PAN 41013 1750            80 82   30/  8/ 10 1012.0F
WVE H/P(F/S)=  3/ 7 SWL H/P/D(F/S/D)=  3/120/ 7

SUNST NRSH 41024 1708            81 81   20/  4/  6 1012.7F
CAPRS NRSH 41029 1708            79 81   60/  4/  8 1013.4F
EDISTO     41004 1750            79 82   40/  8/ 10 1012.2F
WVE H/P(F/S)=  3/ 8 SWL H/P/D(F/S/D)=  3/ 90/ 8



..........OFFSHORE BUOYS BEYOND 100 NM OFFSHORE...........
.....IN A TRIANGLE---HAT TO BERMUDA TO BAHAMAS TO HAT.....


STATION/POSITION TIME  SKY/WX   TEMP    WIND        PRES    VSBY
                                AIR SEA DIR/SP/G
                 (UTC)          (F)     (DEG/KT/KT) (MB)    (MI)
150E HAT   41001 NOT AVBL
W BERMUDA  41048 1750            81 83  120/ 17/ 21 1015.7F
WVE H/P(F/S)=  6/ 7 SWL H/P/D(F/S/D)=  3/ 30/ 9

ATLANTIC S 41049 1750            83 84  130/  6/  8 1018.5F
WVE H/P(F/S)=  6/ 9 SWL H/P/D(F/S/D)=  7/ 10/ 9

E BAHAMAS  41046 1750            85 87  120/ 10/ 14 1015.4F
WVE H/P(F/S)=  4/ 9 SWL H/P/D(F/S/D)=  3/ 30/ 9

NE BAHAMAS 41047 1750            84 86  170/ 12/ 16 1014.3F
WVE H/P(F/S)=  5/11 SWL H/P/D(F/S/D)=  3/ 80/11

120E CANVRL41010 NOT AVBL

END




USA.gov is the U.S. government's official web portal to all federal, state and local government web resources and services.